Time,TemperatureF,DewpointF,PressureIn,WindDirection,WindDirectionDegrees,WindSpeedMPH,WindSpeedGustMPH,Humidity,HourlyPrecipIn,Conditions,Clouds,dailyrainin,SoftwareType,DateUTC
2013-04-09 00:11:00,45.4,43.0,29.95,NNW,345,6.0,-999.0,90,-99.99,,,0.16,weatherlink.com 1.10,2013-04-09 04:11:00,
2013-04-09 00:26:00,45.3,43.0,29.95,NNW,327,5.0,-999.0,90,-99.99,,,0.16,weatherlink.com 1.10,2013-04-09 04:26:00,
2013-04-09 00:41:00,45.2,43.0,29.96,NE,35,3.0,-999.0,90,-99.99,,,0.16,weatherlink.com 1.10,2013-04-09 04:41:00,
2013-04-09 01:11:00,44.8,42.0,29.98,NW,304,2.0,-999.0,90,-99.99,,,0.00,weatherlink.com 1.10,2013-04-09 05:11:00,
2013-04-09 01:26:00,44.7,42.0,29.98,ENE,73,2.0,-999.0,90,-99.99,,,0.00,weatherlink.com 1.10,2013-04-09 05:26:00,
2013-04-09 01:41:00,44.5,42.0,29.99,NNE,23,2.0,-999.0,90,-99.99,,,0.00,weatherlink.com 1.10,2013-04-09 05:41:00,
2013-04-09 01:56:00,44.5,42.0,30.00,ENE,61,0.0,-999.0,91,-99.99,,,0.00,weatherlink.com 1.10,2013-04-09 05:56:00,
2013-04-09 02:26:00,44.1,42.0,30.00,ENE,65,0.0,-999.0,91,-99.99,,,0.00,weatherlink.com 1.10,2013-04-09 06:26:00,
2013-04-09 02:41:00,44.0,42.0,29.99,ENE,78,1.0,-999.0,91,-99.99,,,0.00,weatherlink.com 1.10,2013-04-09 06:41:00,
2013-04-09 02:56:00,43.7,41.0,30.00,NE,46,1.0,-999.0,91,-99.99,,,0.00,weatherlink.com 1.10,2013-04-09 06:56:00,
2013-04-09 03:11:00,43.4,41.0,30.00,NE,51,3.0,-999.0,91,-99.99,,,0.00,weatherlink.com 1.10,2013-04-09 07:11:00,
2013-04-09 03:26:00,43.3,41.0,30.00,NE,53,2.0,-999.0,91,-99.99,,,0.00,weatherlink.com 1.10,2013-04-09 07:26:00,
2013-04-09 03:41:00,43.3,41.0,30.00,ENE,75,1.0,-999.0,91,-99.99,,,0.00,weatherlink.com 1.10,2013-04-09 07:41:00,
2013-04-09 03:56:00,43.2,41.0,30.00,NE,41,0.0,-999.0,92,-99.99,,,0.00,weatherlink.com 1.10,2013-04-09 07:56:00,
2013-04-09 04:11:00,43.1,41.0,30.00,East,85,0.0,-999.0,92,-99.99,,,0.00,weatherlink.com 1.10,2013-04-09 08:11:00,
2013-04-09 04:26:00,42.6,41.0,30.01,NE,55,1.0,-999.0,93,-99.99,,,0.00,weatherlink.com 1.10,2013-04-09 08:26:00,
2013-04-09 04:42:00,42.3,41.0,30.01,ENE,63,2.0,-999.0,93,-99.99,,,0.00,weatherlink.com 1.10,2013-04-09 08:42:00,
2013-04-09 04:56:00,41.6,40.0,30.01,ENE,63,3.0,-999.0,94,-99.99,,,0.00,weatherlink.com 1.10,2013-04-09 08:56:00,
2013-04-09 05:12:00,41.0,39.0,30.02,ENE,78,2.0,-999.0,94,-99.99,,,0.00,weatherlink.com 1.10,2013-04-09 09:12:00,
2013-04-09 05:27:00,40.7,39.0,30.03,ESE,116,4.0,-999.0,95,-99.99,,,0.00,weatherlink.com 1.10,2013-04-09 09:27:00,
2013-04-09 05:42:00,40.2,39.0,30.03,SE,139,5.0,-999.0,95,-99.99,,,0.00,weatherlink.com 1.10,2013-04-09 09:42:00,
2013-04-09 05:57:00,39.8,39.0,30.04,SW,217,0.0,-999.0,95,-99.99,,,0.00,weatherlink.com 1.10,2013-04-09 09:57:00,
2013-04-09 06:12:00,39.9,39.0,30.05,ESE,121,2.0,-999.0,95,-99.99,,,0.00,weatherlink.com 1.10,2013-04-09 10:12:00,
2013-04-09 06:27:00,39.9,39.0,30.05,SSW,208,0.0,-999.0,95,-99.99,,,0.00,weatherlink.com 1.10,2013-04-09 10:27:00,
2013-04-09 06:42:00,40.0,39.0,30.05,SSW,208,6.0,-999.0,96,-99.99,,,0.00,weatherlink.com 1.10,2013-04-09 10:42:00,
2013-04-09 06:57:00,40.2,39.0,30.04,South,177,4.0,-999.0,96,-99.99,,,0.00,weatherlink.com 1.10,2013-04-09 10:57:00,
2013-04-09 07:12:00,40.2,39.0,30.04,SE,141,5.0,-999.0,96,-99.99,,,0.00,weatherlink.com 1.10,2013-04-09 11:12:00,
2013-04-09 07:27:00,40.1,39.0,30.04,SSW,196,4.0,-999.0,96,-99.99,,,0.00,weatherlink.com 1.10,2013-04-09 11:27:00,
2013-04-09 07:42:00,40.0,39.0,30.04,South,169,1.0,-999.0,96,-99.99,,,0.00,weatherlink.com 1.10,2013-04-09 11:42:00,
2013-04-09 07:57:00,40.1,39.0,30.04,SSE,157,4.0,-999.0,96,-99.99,,,0.00,weatherlink.com 1.10,2013-04-09 11:57:00,
2013-04-09 08:12:00,40.2,39.0,30.04,SSW,196,3.0,-999.0,97,-99.99,,,0.00,weatherlink.com 1.10,2013-04-09 12:12:00,
2013-04-09 08:27:00,40.5,40.0,30.04,SSW,194,5.0,-999.0,97,-99.99,,,0.00,weatherlink.com 1.10,2013-04-09 12:27:00,
2013-04-09 08:42:00,40.6,40.0,30.05,SSW,205,4.0,-999.0,97,-99.99,,,0.00,weatherlink.com 1.10,2013-04-09 12:42:00,
2013-04-09 08:57:00,40.9,40.0,30.03,SE,146,2.0,-999.0,97,-99.99,,,0.00,weatherlink.com 1.10,2013-04-09 12:57:00,
2013-04-09 09:12:00,41.2,40.0,30.04,SSW,213,8.0,-999.0,97,-99.99,,,0.00,weatherlink.com 1.10,2013-04-09 13:12:00,
2013-04-09 09:42:00,42.1,41.0,30.02,SSW,205,11.0,-999.0,96,-99.99,,,0.00,weatherlink.com 1.10,2013-04-09 13:42:00,
2013-04-09 09:57:00,43.1,42.0,30.01,SSW,207,5.0,-999.0,95,-99.99,,,0.00,weatherlink.com 1.10,2013-04-09 13:57:00,
2013-04-09 10:12:00,44.2,42.0,30.02,South,184,10.0,-999.0,92,-99.99,,,0.00,weatherlink.com 1.10,2013-04-09 14:12:00,
2013-04-09 10:27:00,45.6,43.0,30.02,SSW,207,8.0,-999.0,90,-99.99,,,0.00,weatherlink.com 1.10,2013-04-09 14:27:00,
2013-04-09 10:42:00,46.6,43.0,30.02,SSW,205,13.0,-999.0,87,-99.99,,,0.00,weatherlink.com 1.10,2013-04-09 14:42:00,
2013-04-09 10:57:00,47.1,43.0,30.03,SSW,201,11.0,-999.0,85,-99.99,,,0.00,weatherlink.com 1.10,2013-04-09 14:57:00,
2013-04-09 11:12:00,47.7,43.0,30.03,SSW,203,11.0,-999.0,83,-99.99,,,0.00,weatherlink.com 1.10,2013-04-09 15:12:00,
2013-04-09 11:27:00,47.7,43.0,30.02,SSW,213,8.0,-999.0,84,-99.99,,,0.00,weatherlink.com 1.10,2013-04-09 15:27:00,
2013-04-09 11:42:00,47.9,43.0,30.02,SW,215,9.0,-999.0,84,-99.99,,,0.00,weatherlink.com 1.10,2013-04-09 15:42:00,
2013-04-09 11:57:00,48.0,43.0,29.98,South,191,8.0,-999.0,84,-99.99,,,0.01,weatherlink.com 1.10,2013-04-09 15:57:00,
2013-04-09 12:12:00,47.4,44.0,29.98,SSW,213,9.0,-999.0,87,-99.99,,,0.01,weatherlink.com 1.10,2013-04-09 16:12:00,
2013-04-09 12:27:00,47.1,44.0,29.97,SSW,194,8.0,-999.0,88,-99.99,,,0.01,weatherlink.com 1.10,2013-04-09 16:27:00,
2013-04-09 12:42:00,46.7,43.0,29.97,SSE,165,8.0,-999.0,88,-99.99,,,0.01,weatherlink.com 1.10,2013-04-09 16:42:00,
2013-04-09 12:57:00,46.5,43.0,29.97,SSW,197,9.0,-999.0,88,-99.99,,,0.02,weatherlink.com 1.10,2013-04-09 16:57:00,
2013-04-09 13:12:00,46.3,43.0,29.97,South,175,5.0,-999.0,88,-99.99,,,0.03,weatherlink.com 1.10,2013-04-09 17:12:00,
2013-04-09 13:27:00,46.3,44.0,29.96,SE,132,2.0,-999.0,90,-99.99,,,0.03,weatherlink.com 1.10,2013-04-09 17:27:00,
2013-04-09 13:42:00,46.1,43.0,29.94,SSE,149,5.0,-999.0,90,-99.99,,,0.04,weatherlink.com 1.10,2013-04-09 17:42:00,
2013-04-09 14:12:00,46.8,44.0,29.92,SSE,147,4.0,-999.0,90,-99.99,,,0.04,weatherlink.com 1.10,2013-04-09 18:12:00,
2013-04-09 14:27:00,47.4,44.0,29.90,SE,135,2.0,-999.0,88,-99.99,,,0.04,weatherlink.com 1.10,2013-04-09 18:27:00,
2013-04-09 14:42:00,47.9,44.0,29.90,SSE,149,4.0,-999.0,87,-99.99,,,0.04,weatherlink.com 1.10,2013-04-09 18:42:00,
2013-04-09 14:58:00,48.3,44.0,29.89,South,173,8.0,-999.0,86,-99.99,,,0.04,weatherlink.com 1.10,2013-04-09 18:58:00,
2013-04-09 15:13:00,48.7,44.0,29.89,South,184,6.0,-999.0,85,-99.99,,,0.04,weatherlink.com 1.10,2013-04-09 19:13:00,
2013-04-09 15:28:00,49.0,45.0,29.89,SSE,149,2.0,-999.0,85,-99.99,,,0.04,weatherlink.com 1.10,2013-04-09 19:28:00,
2013-04-09 15:43:00,49.3,45.0,29.89,SSW,205,4.0,-999.0,84,-99.99,,,0.04,weatherlink.com 1.10,2013-04-09 19:43:00,
2013-04-09 15:58:00,49.9,45.0,29.90,SSW,207,0.0,-999.0,84,-99.99,,,0.04,weatherlink.com 1.10,2013-04-09 19:58:00,
2013-04-09 16:13:00,50.5,46.0,29.89,East,84,0.0,-999.0,83,-99.99,,,0.04,weatherlink.com 1.10,2013-04-09 20:13:00,
2013-04-09 16:28:00,50.5,46.0,29.88,ESE,109,0.0,-999.0,84,-99.99,,,0.04,weatherlink.com 1.10,2013-04-09 20:28:00,
2013-04-09 16:43:00,49.7,46.0,29.87,ENE,76,2.0,-999.0,87,-99.99,,,0.04,weatherlink.com 1.10,2013-04-09 20:43:00,
2013-04-09 16:58:00,48.9,46.0,29.86,ESE,109,5.0,-999.0,88,-99.99,,,0.04,weatherlink.com 1.10,2013-04-09 20:58:00,
2013-04-09 17:13:00,48.5,46.0,29.86,ESE,111,6.0,-999.0,89,-99.99,,,0.04,weatherlink.com 1.10,2013-04-09 21:13:00,
2013-04-09 17:28:00,48.2,46.0,29.85,SE,127,4.0,-999.0,90,-99.99,,,0.05,weatherlink.com 1.10,2013-04-09 21:28:00,
2013-04-09 17:43:00,47.7,46.0,29.85,SE,142,4.0,-999.0,92,-99.99,,,0.05,weatherlink.com 1.10,2013-04-09 21:43:00,
2013-04-09 17:58:00,47.4,45.0,29.85,SE,132,4.0,-999.0,92,-99.99,,,0.05,weatherlink.com 1.10,2013-04-09 21:58:00,
2013-04-09 18:13:00,47.3,45.0,29.85,SE,131,1.0,-999.0,93,-99.99,,,0.05,weatherlink.com 1.10,2013-04-09 22:13:00,
2013-04-09 18:28:00,47.2,45.0,29.86,SSW,199,5.0,-999.0,93,-99.99,,,0.05,weatherlink.com 1.10,2013-04-09 22:28:00,
2013-04-09 18:43:00,47.1,45.0,29.87,ESE,103,1.0,-999.0,93,-99.99,,,0.05,weatherlink.com 1.10,2013-04-09 22:43:00,
2013-04-09 18:58:00,46.6,45.0,29.88,ENE,72,4.0,-999.0,94,-99.99,,,0.05,weatherlink.com 1.10,2013-04-09 22:58:00,
2013-04-09 19:13:00,46.4,45.0,29.86,SE,138,5.0,-999.0,94,-99.99,,,0.05,weatherlink.com 1.10,2013-04-09 23:13:00,
2013-04-09 19:28:00,46.1,45.0,29.84,SE,142,4.0,-999.0,94,-99.99,,,0.05,weatherlink.com 1.10,2013-04-09 23:28:00,
2013-04-09 19:43:00,45.9,44.0,29.87,ESE,117,2.0,-999.0,94,-99.99,,,0.05,weatherlink.com 1.10,2013-04-09 23:43:00,
2013-04-09 19:58:00,45.8,45.0,29.86,ESE,104,4.0,-999.0,95,-99.99,,,0.05,weatherlink.com 1.10,2013-04-09 23:58:00,
2013-04-09 20:13:00,45.7,44.0,29.87,NE,54,3.0,-999.0,95,-99.99,,,0.05,weatherlink.com 1.10,2013-04-10 00:13:00,
2013-04-09 20:28:00,45.7,44.0,29.89,East,98,4.0,-999.0,95,-99.99,,,0.05,weatherlink.com 1.10,2013-04-10 00:28:00,
2013-04-09 20:43:00,45.6,44.0,29.89,SSW,196,5.0,-999.0,95,-99.99,,,0.11,weatherlink.com 1.10,2013-04-10 00:43:00,
2013-04-09 20:58:00,45.4,44.0,29.89,NE,53,2.0,-999.0,95,-99.99,,,0.61,weatherlink.com 1.10,2013-04-10 00:58:00,
2013-04-09 21:13:00,45.2,44.0,29.90,ESE,119,1.0,-999.0,96,-99.99,,,0.69,weatherlink.com 1.10,2013-04-10 01:13:00,
2013-04-09 21:28:00,45.4,44.0,29.91,East,92,0.0,-999.0,96,-99.99,,,0.69,weatherlink.com 1.10,2013-04-10 01:28:00,
2013-04-09 21:43:00,45.4,44.0,29.95,ESE,103,5.0,-999.0,96,-99.99,,,0.69,weatherlink.com 1.10,2013-04-10 01:43:00,
2013-04-09 21:58:00,45.3,44.0,29.95,ESE,111,1.0,-999.0,96,-99.99,,,0.71,weatherlink.com 1.10,2013-04-10 01:58:00,
2013-04-09 22:13:00,45.2,44.0,29.93,ESE,118,2.0,-999.0,96,-99.99,,,0.72,weatherlink.com 1.10,2013-04-10 02:13:00,
2013-04-09 22:28:00,45.2,44.0,29.93,SE,134,1.0,-999.0,97,-99.99,,,0.72,weatherlink.com 1.10,2013-04-10 02:28:00,
2013-04-09 22:43:00,45.2,44.0,29.94,East,81,2.0,-999.0,97,-99.99,,,0.72,weatherlink.com 1.10,2013-04-10 02:43:00,
2013-04-09 22:58:00,44.9,44.0,29.94,East,90,2.0,-999.0,96,-99.99,,,0.72,weatherlink.com 1.10,2013-04-10 02:58:00,
2013-04-09 23:13:00,44.5,44.0,29.95,ENE,61,3.0,-999.0,97,-99.99,,,0.72,weatherlink.com 1.10,2013-04-10 03:13:00,
2013-04-09 23:28:00,44.2,43.0,29.95,East,82,3.0,-999.0,97,-99.99,,,0.72,weatherlink.com 1.10,2013-04-10 03:28:00,
2013-04-09 23:43:00,44.0,43.0,29.95,ESE,110,1.0,-999.0,96,-99.99,,,0.72,weatherlink.com 1.10,2013-04-10 03:43:00,
2013-04-09 23:58:00,43.8,43.0,29.96,ENE,74,2.0,-999.0,97,-99.99,,,0.72,weatherlink.com 1.10,2013-04-10 03:58:00,